Regional Weather Roundup
Issued by NWS Charleston, SC

Current Version | Previous Version | Text Only | Print | Product List | Glossary Off
Versions: 1 2 3 4 5 6 7 8 9 10 11 12 13 14 15 16 17 18 19 20 21 22 23 24 25 26 27 28 29 30 31 32 33 34 35 36 37 38 39 40 41 42 43 44 45 46 47 48 49 50
000 ASUS42 KCHS 290727 RWRCHS REGIONAL WEATHER ROUNDUP NATIONAL WEATHER SERVICE CHARLESTON SC 300 AM EDT MON MAY 29 2017 NOTE: "FAIR" INDICATES FEW OR NO CLOUDS BELOW 12,000 FEET WITH NO SIGNIFICANT WEATHER AND/OR OBSTRUCTIONS TO VISIBILITY. NOT ALL STATIONS ARE QUALITY CONTROLLED. USE DATA WITH CAUTION... ESPECIALLY DEWPOINT OBSERVATIONS. SCZ027-030-031-034>040-042>050-290800- ...SOUTHEAST SOUTH CAROLINA... CITY SKY/WX TMP DP RH WIND PRES REMARKS N CHARLESTON PTCLDY 77 72 84 SW9 29.89F WATERFRONT PRK N/A 78 75 90 SW5 29.88S JOHNS ISLAND FAIR 79 75 89 SW7 29.90F PINOPOLIS N/A 79 72 78 SW8 29.82S MONCKS CORNER FAIR 72 68 88 CALM 29.90S SUMMERVILLE FAIR 72 70 94 CALM 29.91S BEAUFORT MCAS CLEAR 77 69 76 W8 29.92S BEAUFORT ARPT FAIR 79 68 69 W9 29.92S HILTON HEAD IS CLEAR 81 70 69 SW9G15 29.94S WALTERBORO MOSUNNY 75 68 78 W8 29.91S ALLENDALE FAIR 73 68 83 CALM 29.91S ...SOUTHERN MIDLANDS AND PEE DEE... CITY SKY/WX TMP DP RH WIND PRES REMARKS GEORGETOWN FAIR 72 70 94 SW3 29.90R KINGSTREE FAIR 70 68 94 CALM 29.88F ORANGEBURG PTCLDY 70 68 93 SW3 29.90F BARNWELL FAIR 72 70 94 CALM 29.92R AIKEN FAIR 68 64 88 SW7 29.96R MANNING FAIR 72 59 64 SW9 29.89F COLUMBIA CLEAR 71 67 87 W3 29.88F SUMTER CLOUDY 72 68 87 W6 29.86F FLORENCE CLEAR 69 69 100 SW6 29.88S MYRTLE BEACH NOT AVBL N MYRTLE BEACH CLEAR 72 71 97 W3 29.87R $$ GAZ063-065-086>088-099>101-113>116-118-119-134>141-150-290800- ...SOUTHEAST GEORGIA... CITY SKY/WX TMP DP RH WIND PRES REMARKS SAVANNAH ARPT CLEAR 76 66 71 W8 29.95R HUNTER AAF CLEAR 77 72 83 W8 29.92S FORT STEWART CLOUDY 78 67 69 W8 29.93F STATESBORO CLOUDY 77 69 76 W7 29.95R SYLVANIA PTSUNNY 75 70 83 CALM 29.94S CLAXTON FAIR 75 75 100 SW3 29.95F ...CSRA...CENTRAL AND FAR SOUTHEAST GEORGIA... CITY SKY/WX TMP DP RH WIND PRES REMARKS THOMSON CLEAR 69 66 88 NW3 29.98S AUGUSTA-BUSH CLEAR 71 68 90 CALM 29.91R AUGUSTA-DANIEL CLEAR 75 65 70 CALM 29.93R SWAINSBORO FAIR 73 68 83 SW5 29.96R VIDALIA CLOUDY 75 70 83 SW5 29.97R EASTMAN FAIR 75 67 76 CALM 29.99S HAZLEHURST FAIR 78 73 86 W5 29.97S ALMA PTCLDY 79 70 74 W8 29.97F WAYCROSS PTCLDY 77 77 100 SW3 29.98S JESUP FAIR 73 70 88 CALM 29.97S BAXLEY FAIR 77 77 100 W3 29.97S BRUNSWICK CLEAR 77 75 94 SW7 29.98S SAINT SIMONS CLEAR 79 74 84 W8 29.97S $$ SCZ027-028-034-036>038-045-046-048>050-GAZ119-141-290800- ...LAKE AND SUPPLEMENTAL COASTAL OBSERVATIONS... STATION/POSITION TIME TEMP WIND PRES WAVE SWELL AIR SEA DIR/SP/G HT/PER HT/PER/DIR (UTC) (F) (DEG/KT/KT) (MB) (FT/S) (FT/S/D) WINYAH BAY 0630 76 260/ 4 1012.0R LAKE MURRAY 0650 72 280/ 4/ 6 1011.5F ACE BASIN NERRS 0645 77 220/ 1 1013.0S FORT PULASKI 0700 81 270/ 9/ 13 1014.0 SAPELO ISLAND 0700 79 250/ 7 1015.0 $$ ANZ835-935-AMZ111-154-330-350-352-354-370-450-454-472-290800- ...C-MAN AND BUOY OBSERVATIONS... STATION/POSITION TIME TEMP WIND PRES WAVE SWELL AIR SEA DIR/SP/G HT/PER HT/PER/DIR (UTC) (F) (DEG/KT/KT) (MB) (FT/S) (FT/S/D) BUOY 41004 0700 78 76 230/ 16/ 19 1012.0 BUOY 41008 0650 80 78 250/ 12/ 14 1014.1R 2/ 4 2/120/ 9 FOLLY BEACH CMAN 0700 78 230/ 11/ 15 1013.1F CAPERS NEARSHORE 0708 80 77 240/ 16/ 21 1011.9S FRIPP NEARSHORE 0708 79 78 240/ 12/ 16 1012.8F STATION/POSITION TIME TEMP WIND PRES WAVE SWELL AIR SEA DIR/SP/G HT/PER HT/PER/DIR (UTC) (F) (DEG/KT/KT) (MB) (FT/S) (FT/S/D) 5E ST. MARYS GA 0700 79 N/A 2/ 4 FRYING PAN BUOY 0700 76 75 240/ 16/ 19 1011.3 BUOY 41025 0650 76 76 260/ 14/ 17 1009.0R 5/ 6 2/270/ 9 CAPE LOOKOUT NC 0700 74 240/ 9/ 13 1009.6R BUOY 41002 0650 77 77 200/ 12/ 14 1013.6F 4/ 6 2/250/ 6 BUOY 41010 0700 80 80 210/ 8/ 10 1015.5 ST AUGUSTINE FL 0700 76 78 280/ 5/ 6 1016.5R $$

USA.gov is the U.S. government's official web portal to all federal, state and local government web resources and services.